Location: Arrien
(42.8963°N, 1.0429°E)
Time: 10:06:13
(UTC+00:00)

ISS - Pass Details

Date: 17 February 2026
Orbit: 416 x 426 km, 51.6° (Epoch: 10 March)

Event Time Altitude Azimuth Distance (km) Brightness Sun altitude
Exits shadow 06:12:05 10° 284° (WNW) 1,481 -1.7 -7.7°
Maximum altitude 06:14:55 26° 342° (NNW) 867 -2.4 -7.2°
Drops below altitude 10° 06:17:48 10° 42° (NE) 1,494 -0.5 -6.7°
Sets 06:20:07 0° 55° (NE) 2,358 0.8 -6.3°
